Jolien D'Hoore

Team SD Worx

Information
Nationality Belgium
Born14th March 1990 (31)
WorldTour 18 Wins
UCI 48 Wins
UCI Ranking 28
Agency 10SPEED HR

202120202019201820172016201520142013201220112010

Team SD Worx (WorldTour) UCI Ranking: 28 Wins: 1 Race days: 25 Distance: 2.791km
Date Pos GC Race CAT UCI
2021-03-28 28.03 64 Gent - Wevelgem Women 1.WWTShow more
2021-03-12 12.03 17 Healthy Ageing Tour 2.124Show more
2021-03-25 25.03 3 Oxyclean Classic Brugge-De Panne 1.WWT260Show more
2021-03-21 21.03 9 Omloop Westhoek Dames 1.125Show more
2021-03-17 17.03 6 Nokere Koerse 1.Pro70Show more
2021-03-14 14.03 2 GP Oetingen 1.230Show more
2021-03-02 02.03 72 Le Samyn des Dames 1.1Show more
2021-02-27 27.02 28 Omloop Het Nieuwsblad 1.Pro3Show more
2021-04-04 04.04 78 Ronde van Vlaanderen Women's 1.WWTShow more
2021-06-05 05.06 5 Dwars door het Hageland 1.215Show more
2021-06-06 06.06 2 Dwars door de Westhoek 1.185Show more
2021-06-25 25.06 6 Lotto Belgium Tour 2.140Show more
2021-06-20 20.06 6 CN Belgium RR CNRR30
2021-06-13 13.06 7 Flanders Diamond Tour 1.135Show more
2021-05-30 30.05 57 Thüringen Ladies Tour 2.ProShow more
2021-05-30 30.05 23 Thüringen Ladies Tour | Points 2.Pro
2021-03-12 12.03 7 Healthy Ageing Tour | Points 2.1
2021-06-25 25.06 2 Lotto Belgium Tour | Points 2.1
2021-06-25 25.06 8 Lotto Belgium Tour | Mountain 2.1
2021-03-12 12.03 3 - Healthy Ageing Tour | Mountain 2.1
2021-03-12 12.03 5 Healthy Ageing Tour | Sprint 2.1
2021-06-25 25.06 20 6 Lotto Belgium Tour | 3rd stage 2.1
2021-06-24 24.06 6 6 Lotto Belgium Tour | 2nd stage 2.1
2021-06-23 23.06 2 1 Lotto Belgium Tour | 1st stage 2.1
2021-06-22 22.06 3 3 Lotto Belgium Tour | Prologue 2.1
2021-05-30 30.05 4 57 Thüringen Ladies Tour | 6th stage 2.Pro
2021-05-29 29.05 56 59 Thüringen Ladies Tour | 5th stage 2.Pro
2021-05-28 28.05 55 60 Thüringen Ladies Tour | 4th stage 2.Pro
2021-05-27 27.05 64 65 Thüringen Ladies Tour | 3rd stage 2.Pro
2021-05-26 26.05 36 62 Thüringen Ladies Tour | 2nd stage 2.Pro
2021-05-25 25.05 67 67 Thüringen Ladies Tour | 1st stage 2.Pro
2021-03-12 12.03 21 17 Healthy Ageing Tour | 3rd stage 2.1
2021-03-11 11.03 27 23 Healthy Ageing Tour | 2nd stage 2.1
2021-03-10 10.03 1 1 Healthy Ageing Tour | 1st stage 2.1